Year,Month,Day,Hour,Minute,Value (Times are PST for temperature in C)
2008,10,18,00,00,8.70
2008,10,18,00,01,8.60
2008,10,18,00,02,8.60
2008,10,18,00,03,8.60
2008,10,18,00,04,8.60
2008,10,18,00,05,8.60
2008,10,18,00,06,8.60
2008,10,18,00,07,8.50
2008,10,18,00,08,8.50
2008,10,18,00,09,8.50
2008,10,18,00,10,8.40
2008,10,18,00,11,8.40
2008,10,18,00,12,8.40
2008,10,18,00,13,8.40
2008,10,18,00,14,8.30
2008,10,18,00,15,8.30
2008,10,18,00,16,8.30
2008,10,18,00,17,8.30
2008,10,18,00,18,8.30
2008,10,18,00,19,8.20
2008,10,18,00,20,8.20
2008,10,18,00,21,8.20
2008,10,18,00,22,8.20
2008,10,18,00,23,8.20
2008,10,18,00,24,8.20
2008,10,18,00,25,8.20
2008,10,18,00,26,8.20
2008,10,18,00,27,8.20
2008,10,18,00,28,8.20
2008,10,18,00,29,8.20
2008,10,18,00,30,8.20
2008,10,18,00,31,8.20
2008,10,18,00,32,8.20
2008,10,18,00,33,8.10
2008,10,18,00,34,8.10
2008,10,18,00,35,8.10
2008,10,18,00,36,8.10
2008,10,18,00,37,8.10
2008,10,18,00,38,8.10
2008,10,18,00,39,8.10
2008,10,18,00,40,8.10
2008,10,18,00,41,8.10
2008,10,18,00,42,8.10
2008,10,18,00,43,8.00
2008,10,18,00,44,8.00
2008,10,18,00,45,8.00
2008,10,18,00,46,8.00
2008,10,18,00,47,7.90
2008,10,18,00,48,7.90
2008,10,18,00,49,7.90
2008,10,18,00,50,7.90
2008,10,18,00,51,7.80
2008,10,18,00,52,7.80
2008,10,18,00,53,7.80
2008,10,18,00,54,7.80
2008,10,18,00,55,7.80
2008,10,18,00,56,7.80
2008,10,18,00,57,7.80
2008,10,18,00,58,7.80
2008,10,18,00,59,7.80
2008,10,18,01,00,7.80
2008,10,18,01,01,7.80
2008,10,18,01,02,7.80
2008,10,18,01,03,7.70
2008,10,18,01,04,7.70
2008,10,18,01,05,7.70
2008,10,18,01,06,7.70
2008,10,18,01,07,7.70
2008,10,18,01,08,7.70
2008,10,18,01,09,7.70
2008,10,18,01,10,7.70
2008,10,18,01,11,7.70
2008,10,18,01,12,7.70
2008,10,18,01,13,7.70
2008,10,18,01,14,7.70
2008,10,18,01,15,7.70
2008,10,18,01,16,7.60
2008,10,18,01,17,7.60
2008,10,18,01,18,7.60
2008,10,18,01,19,7.60
2008,10,18,01,20,7.60
2008,10,18,01,21,7.60
2008,10,18,01,22,7.60
2008,10,18,01,23,7.60
2008,10,18,01,24,7.60
2008,10,18,01,25,7.60
2008,10,18,01,26,7.60
2008,10,18,01,27,7.60
2008,10,18,01,28,7.60
2008,10,18,01,29,7.60
2008,10,18,01,30,7.60
2008,10,18,01,31,7.60
2008,10,18,01,32,7.60
2008,10,18,01,33,7.60
2008,10,18,01,34,7.50
2008,10,18,01,35,7.60
2008,10,18,01,36,7.50
2008,10,18,01,37,7.50
2008,10,18,01,38,7.50
2008,10,18,01,39,7.50
2008,10,18,01,40,7.50
2008,10,18,01,41,7.40
2008,10,18,01,42,7.40
2008,10,18,01,43,7.40
2008,10,18,01,44,7.40
2008,10,18,01,45,7.40
2008,10,18,01,46,7.40
2008,10,18,01,47,7.30
2008,10,18,01,48,7.30
2008,10,18,01,49,7.30
2008,10,18,01,50,7.30
2008,10,18,01,51,7.30
2008,10,18,01,52,7.30
2008,10,18,01,53,7.20
2008,10,18,01,54,7.20
2008,10,18,01,55,7.20
2008,10,18,01,56,7.20
2008,10,18,01,57,7.20
2008,10,18,01,58,7.20
2008,10,18,01,59,7.20
2008,10,18,02,00,7.20
2008,10,18,02,01,7.10
2008,10,18,02,02,7.10
2008,10,18,02,03,7.10
2008,10,18,02,04,7.10
2008,10,18,02,05,7.00
2008,10,18,02,06,7.00
2008,10,18,02,07,7.00
2008,10,18,02,08,7.00
2008,10,18,02,09,7.00
2008,10,18,02,10,7.00
2008,10,18,02,11,7.00
2008,10,18,02,12,6.90
2008,10,18,02,13,6.90
2008,10,18,02,14,6.90
2008,10,18,02,15,6.90
2008,10,18,02,16,6.90
2008,10,18,02,17,6.80
2008,10,18,02,18,6.80
2008,10,18,02,19,6.80
2008,10,18,02,20,6.80
2008,10,18,02,21,6.70
2008,10,18,02,22,6.70
2008,10,18,02,23,6.70
2008,10,18,02,24,6.70
2008,10,18,02,25,6.70
2008,10,18,02,26,6.70
2008,10,18,02,27,6.70
2008,10,18,02,28,6.70
2008,10,18,02,29,6.70
2008,10,18,02,30,6.60
2008,10,18,02,31,6.60
2008,10,18,02,32,6.60
2008,10,18,02,33,6.60
2008,10,18,02,34,6.60
2008,10,18,02,35,6.60
2008,10,18,02,36,6.60
2008,10,18,02,37,6.60
2008,10,18,02,38,6.60
2008,10,18,02,39,6.60
2008,10,18,02,40,6.60
2008,10,18,02,41,6.60
2008,10,18,02,42,6.60
2008,10,18,02,43,6.60
2008,10,18,02,44,6.60
2008,10,18,02,45,6.60
2008,10,18,02,46,6.60
2008,10,18,02,47,6.60
2008,10,18,02,48,6.60
2008,10,18,02,49,6.60
2008,10,18,02,50,6.70
2008,10,18,02,51,6.70
2008,10,18,02,52,6.70
2008,10,18,02,53,6.70
2008,10,18,02,54,6.60
2008,10,18,02,55,6.60
2008,10,18,02,56,6.60
2008,10,18,02,57,6.60
2008,10,18,02,58,6.50
2008,10,18,02,59,6.50
2008,10,18,03,00,6.40
2008,10,18,03,01,6.40
2008,10,18,03,02,6.40
2008,10,18,03,03,6.30
2008,10,18,03,04,6.30
2008,10,18,03,05,6.30
2008,10,18,03,06,6.30
2008,10,18,03,07,6.30
2008,10,18,03,08,6.30
2008,10,18,03,09,6.30
2008,10,18,03,10,6.30
2008,10,18,03,11,6.30
2008,10,18,03,12,6.30
2008,10,18,03,13,6.30
2008,10,18,03,14,6.30
2008,10,18,03,15,6.30
2008,10,18,03,16,6.30
2008,10,18,03,17,6.30
2008,10,18,03,18,6.30
2008,10,18,03,19,6.30
2008,10,18,03,20,6.30
2008,10,18,03,21,6.30
2008,10,18,03,22,6.40
2008,10,18,03,23,6.40
2008,10,18,03,24,6.40
2008,10,18,03,25,6.40
2008,10,18,03,26,6.30
2008,10,18,03,27,6.30
2008,10,18,03,28,6.30
2008,10,18,03,29,6.30
2008,10,18,03,30,6.30
2008,10,18,03,31,6.30
2008,10,18,03,32,6.40
2008,10,18,03,33,6.40
2008,10,18,03,34,6.40
2008,10,18,03,35,6.40
2008,10,18,03,36,6.40
2008,10,18,03,37,6.40
2008,10,18,03,38,6.40
2008,10,18,03,39,6.40
2008,10,18,03,40,6.30
2008,10,18,03,41,6.30
2008,10,18,03,42,6.30
2008,10,18,03,43,6.30
2008,10,18,03,44,6.30
2008,10,18,03,45,6.30
2008,10,18,03,46,6.30
2008,10,18,03,47,6.30
2008,10,18,03,48,6.30
2008,10,18,03,49,6.40
2008,10,18,03,50,6.40
2008,10,18,03,51,6.40
2008,10,18,03,52,6.40
2008,10,18,03,53,6.40
2008,10,18,03,54,6.40
2008,10,18,03,55,6.40
2008,10,18,03,56,6.50
2008,10,18,03,57,6.50
2008,10,18,03,58,6.50
2008,10,18,03,59,6.50
2008,10,18,04,00,6.50
2008,10,18,04,01,6.50
2008,10,18,04,02,6.40
2008,10,18,04,03,6.40
2008,10,18,04,04,6.40
2008,10,18,04,05,6.40
2008,10,18,04,06,6.40
2008,10,18,04,07,6.40
2008,10,18,04,08,6.40
2008,10,18,04,09,6.30
2008,10,18,04,10,6.30
2008,10,18,04,11,6.30
2008,10,18,04,12,6.30
2008,10,18,04,13,6.20
2008,10,18,04,14,6.20
2008,10,18,04,15,6.20
2008,10,18,04,16,6.20
2008,10,18,04,17,6.20
2008,10,18,04,18,6.20
2008,10,18,04,19,6.20
2008,10,18,04,20,6.20
2008,10,18,04,21,6.30
2008,10,18,04,22,6.30
2008,10,18,04,23,6.30
2008,10,18,04,24,6.30
2008,10,18,04,25,6.30
2008,10,18,04,26,6.30
2008,10,18,04,27,6.30
2008,10,18,04,28,6.30
2008,10,18,04,29,6.30
2008,10,18,04,30,6.30
2008,10,18,04,31,6.30
2008,10,18,04,32,6.40
2008,10,18,04,33,6.40
2008,10,18,04,34,6.30
2008,10,18,04,35,6.30
2008,10,18,04,36,6.30
2008,10,18,04,37,6.30
2008,10,18,04,38,6.30
2008,10,18,04,39,6.30
2008,10,18,04,40,6.30
2008,10,18,04,41,6.30
2008,10,18,04,42,6.30
2008,10,18,04,43,6.30
2008,10,18,04,44,6.30
2008,10,18,04,45,6.30
2008,10,18,04,46,6.20
2008,10,18,04,47,6.20
2008,10,18,04,48,6.20
2008,10,18,04,49,6.10
2008,10,18,04,50,6.10
2008,10,18,04,51,6.10
2008,10,18,04,52,6.10
2008,10,18,04,53,6.10
2008,10,18,04,54,6.10
2008,10,18,04,55,6.00
2008,10,18,04,56,6.00
2008,10,18,04,57,6.00
2008,10,18,04,58,6.00
2008,10,18,04,59,6.00
2008,10,18,05,00,5.90
2008,10,18,05,01,5.90
2008,10,18,05,02,5.90
2008,10,18,05,03,5.90
2008,10,18,05,04,5.90
2008,10,18,05,05,5.80
2008,10,18,05,06,5.80
2008,10,18,05,07,5.80
2008,10,18,05,08,5.80
2008,10,18,05,09,5.70
2008,10,18,05,10,5.70
2008,10,18,05,11,5.70
2008,10,18,05,12,5.80
2008,10,18,05,13,5.80
2008,10,18,05,14,5.80
2008,10,18,05,15,5.80
2008,10,18,05,16,5.80
2008,10,18,05,17,5.80
2008,10,18,05,18,5.80
2008,10,18,05,19,5.80
2008,10,18,05,20,5.80
2008,10,18,05,21,5.80
2008,10,18,05,22,5.90
2008,10,18,05,23,5.90
2008,10,18,05,24,5.90
2008,10,18,05,25,5.90
2008,10,18,05,26,5.90
2008,10,18,05,27,5.90
2008,10,18,05,28,5.90
2008,10,18,05,29,5.90
2008,10,18,05,30,5.80
2008,10,18,05,31,5.80
2008,10,18,05,32,5.80
2008,10,18,05,33,5.70
2008,10,18,05,34,5.70
2008,10,18,05,35,5.70
2008,10,18,05,36,5.70
2008,10,18,05,37,5.70
2008,10,18,05,38,5.70
2008,10,18,05,39,5.70
2008,10,18,05,40,5.70
2008,10,18,05,41,5.70
2008,10,18,05,42,5.70
2008,10,18,05,43,5.70
2008,10,18,05,44,5.70
2008,10,18,05,45,5.70
2008,10,18,05,46,5.70
2008,10,18,05,47,5.60
2008,10,18,05,48,5.60
2008,10,18,05,49,5.60
2008,10,18,05,50,5.60
2008,10,18,05,51,5.70
2008,10,18,05,52,5.70
2008,10,18,05,53,5.70
2008,10,18,05,54,5.70
2008,10,18,05,55,5.70
2008,10,18,05,56,5.70
2008,10,18,05,57,5.70
2008,10,18,05,58,5.70
2008,10,18,05,59,5.70
2008,10,18,06,00,5.70
2008,10,18,06,01,5.70
2008,10,18,06,02,5.70
2008,10,18,06,03,5.70
2008,10,18,06,04,5.70
2008,10,18,06,05,5.70
2008,10,18,06,06,5.70
2008,10,18,06,07,5.70
2008,10,18,06,08,5.70
2008,10,18,06,09,5.60
2008,10,18,06,10,5.60
2008,10,18,06,11,5.60
2008,10,18,06,12,5.60
2008,10,18,06,13,5.60
2008,10,18,06,14,5.50
2008,10,18,06,15,5.50
2008,10,18,06,16,5.40
2008,10,18,06,17,5.40
2008,10,18,06,18,5.40
2008,10,18,06,19,5.50
2008,10,18,06,20,5.50
2008,10,18,06,21,5.50
2008,10,18,06,22,5.50
2008,10,18,06,23,5.60
2008,10,18,06,24,5.60
2008,10,18,06,25,5.60
2008,10,18,06,26,5.60
2008,10,18,06,27,5.60
2008,10,18,06,28,5.50
2008,10,18,06,29,5.50
2008,10,18,06,30,5.50
2008,10,18,06,31,5.50
2008,10,18,06,32,5.50
2008,10,18,06,33,5.50
2008,10,18,06,34,5.50
2008,10,18,06,35,5.60
2008,10,18,06,36,5.60
2008,10,18,06,37,5.60
2008,10,18,06,38,5.60
2008,10,18,06,39,5.50
2008,10,18,06,40,5.50
2008,10,18,06,41,5.50
2008,10,18,06,42,5.60
2008,10,18,06,43,5.60
2008,10,18,06,44,5.50
2008,10,18,06,45,5.50
2008,10,18,06,46,5.50
2008,10,18,06,47,5.50
2008,10,18,06,48,5.60
2008,10,18,06,49,5.60
2008,10,18,06,50,5.50
2008,10,18,06,51,5.60
2008,10,18,06,52,5.60
2008,10,18,06,53,5.60
2008,10,18,06,54,5.60
2008,10,18,06,55,5.50
2008,10,18,06,56,5.50
2008,10,18,06,57,5.50
2008,10,18,06,58,5.50
2008,10,18,06,59,5.40
2008,10,18,07,00,5.40
2008,10,18,07,01,5.40
2008,10,18,07,02,5.40
2008,10,18,07,03,5.40
2008,10,18,07,04,5.40
2008,10,18,07,05,5.30
2008,10,18,07,06,5.30
2008,10,18,07,07,5.30
2008,10,18,07,08,5.30
2008,10,18,07,09,5.30
2008,10,18,07,10,5.30
2008,10,18,07,11,5.30
2008,10,18,07,12,5.30
2008,10,18,07,13,5.30
2008,10,18,07,14,5.30
2008,10,18,07,15,5.30
2008,10,18,07,16,5.30
2008,10,18,07,17,5.30
2008,10,18,07,18,5.30
2008,10,18,07,19,5.30
2008,10,18,07,20,5.30
2008,10,18,07,21,5.30
2008,10,18,07,22,5.30
2008,10,18,07,23,5.30
2008,10,18,07,24,5.30
2008,10,18,07,25,5.30
2008,10,18,07,26,5.30
2008,10,18,07,27,5.30
2008,10,18,07,28,5.30
2008,10,18,07,29,5.30
2008,10,18,07,30,5.20
2008,10,18,07,31,5.20
2008,10,18,07,32,5.20
2008,10,18,07,33,5.10
2008,10,18,07,34,5.10
2008,10,18,07,35,5.10
2008,10,18,07,36,5.10
2008,10,18,07,37,5.00
2008,10,18,07,38,5.00
2008,10,18,07,39,4.90
2008,10,18,07,40,4.90
2008,10,18,07,41,4.90
2008,10,18,07,42,4.80
2008,10,18,07,43,4.80
2008,10,18,07,44,4.80
2008,10,18,07,45,4.80
2008,10,18,07,46,4.80
2008,10,18,07,47,4.70
2008,10,18,07,48,4.70
2008,10,18,07,49,4.70
2008,10,18,07,50,4.70
2008,10,18,07,51,4.70
2008,10,18,07,52,4.70
2008,10,18,07,53,4.70
2008,10,18,07,54,4.70
2008,10,18,07,55,4.70
2008,10,18,07,56,4.60
2008,10,18,07,57,4.70
2008,10,18,07,58,4.70
2008,10,18,07,59,4.60
2008,10,18,08,00,4.60
2008,10,18,08,01,4.70
2008,10,18,08,02,4.70
2008,10,18,08,03,4.70
2008,10,18,08,04,4.70
2008,10,18,08,05,4.70
2008,10,18,08,06,4.70
2008,10,18,08,07,4.80
2008,10,18,08,08,4.80
2008,10,18,08,09,4.80
2008,10,18,08,10,4.90
2008,10,18,08,11,4.90
2008,10,18,08,12,4.90
2008,10,18,08,13,4.90
2008,10,18,08,14,4.90
2008,10,18,08,15,4.90
2008,10,18,08,16,4.90
2008,10,18,08,17,4.90
2008,10,18,08,18,5.00
2008,10,18,08,19,5.00
2008,10,18,08,20,5.00
2008,10,18,08,21,5.00
2008,10,18,08,22,5.00
2008,10,18,08,23,5.10
2008,10,18,08,24,5.10
2008,10,18,08,25,5.10
2008,10,18,08,26,5.10
2008,10,18,08,27,5.20
2008,10,18,08,28,5.20
2008,10,18,08,29,5.30
2008,10,18,08,30,5.30
2008,10,18,08,31,5.30
2008,10,18,08,32,5.40
2008,10,18,08,33,5.40
2008,10,18,08,34,5.50
2008,10,18,08,35,5.50
2008,10,18,08,36,5.60
2008,10,18,08,37,5.70
2008,10,18,08,38,5.80
2008,10,18,08,39,5.80
2008,10,18,08,40,5.80
2008,10,18,08,41,5.90
2008,10,18,08,42,5.90
2008,10,18,08,43,5.90
2008,10,18,08,44,5.90
2008,10,18,08,45,5.90
2008,10,18,08,46,6.00
2008,10,18,08,47,6.00
2008,10,18,08,48,6.10
2008,10,18,08,49,6.10
2008,10,18,08,50,6.10
2008,10,18,08,51,6.20
2008,10,18,08,52,6.20
2008,10,18,08,53,6.20
2008,10,18,08,54,6.20
2008,10,18,08,55,6.20
2008,10,18,08,56,6.30
2008,10,18,08,57,6.30
2008,10,18,08,58,6.40
2008,10,18,08,59,6.40
2008,10,18,09,00,6.50
2008,10,18,09,01,6.50
2008,10,18,09,02,6.60
2008,10,18,09,03,6.60
2008,10,18,09,04,6.60
2008,10,18,09,05,6.50
2008,10,18,09,06,6.50
2008,10,18,09,07,6.50
2008,10,18,09,08,6.50
2008,10,18,09,09,6.40
2008,10,18,09,10,6.40
2008,10,18,09,11,6.40
2008,10,18,09,12,6.40
2008,10,18,09,13,6.40
2008,10,18,09,14,6.40
2008,10,18,09,15,6.40
2008,10,18,09,16,6.40
2008,10,18,09,17,6.40
2008,10,18,09,18,6.40
2008,10,18,09,19,6.50
2008,10,18,09,20,6.50
2008,10,18,09,21,6.50
2008,10,18,09,22,6.60
2008,10,18,09,23,6.60
2008,10,18,09,24,6.60
2008,10,18,09,25,6.70
2008,10,18,09,26,6.70
2008,10,18,09,27,6.70
2008,10,18,09,28,6.70
2008,10,18,09,29,6.80
2008,10,18,09,30,6.90
2008,10,18,09,31,6.90
2008,10,18,09,32,7.00
2008,10,18,09,33,7.10
2008,10,18,09,34,7.20
2008,10,18,09,35,7.20
2008,10,18,09,36,7.30
2008,10,18,09,37,7.40
2008,10,18,09,38,7.50
2008,10,18,09,39,7.50
2008,10,18,09,40,7.60
2008,10,18,09,41,7.70
2008,10,18,09,42,7.70
2008,10,18,09,43,7.70
2008,10,18,09,44,7.70
2008,10,18,09,45,7.80
2008,10,18,09,46,7.80
2008,10,18,09,47,7.80
2008,10,18,09,48,7.80
2008,10,18,09,49,7.90
2008,10,18,09,50,7.90
2008,10,18,09,51,7.90
2008,10,18,09,52,8.00
2008,10,18,09,53,8.10
2008,10,18,09,54,8.10
2008,10,18,09,55,8.20
2008,10,18,09,56,8.20
2008,10,18,09,57,8.20
2008,10,18,09,58,8.30
2008,10,18,09,59,8.40
2008,10,18,10,00,8.40
2008,10,18,10,01,8.50
2008,10,18,10,02,8.50
2008,10,18,10,03,8.60
2008,10,18,10,04,8.70
2008,10,18,10,05,8.70
2008,10,18,10,06,8.80
2008,10,18,10,07,8.80
2008,10,18,10,08,8.90
2008,10,18,10,09,8.90
2008,10,18,10,10,9.00
2008,10,18,10,11,9.10
2008,10,18,10,12,9.10
2008,10,18,10,13,9.20
2008,10,18,10,14,9.30
2008,10,18,10,15,9.40
2008,10,18,10,16,9.50
2008,10,18,10,17,9.60
2008,10,18,10,18,9.70
2008,10,18,10,19,9.70
2008,10,18,10,20,9.80
2008,10,18,10,21,9.90
2008,10,18,10,22,9.90
2008,10,18,10,23,10.00
2008,10,18,10,24,10.00
2008,10,18,10,25,10.10
2008,10,18,10,26,10.10
2008,10,18,10,27,10.10
2008,10,18,10,28,10.10
2008,10,18,10,29,10.10
2008,10,18,10,30,10.20
2008,10,18,10,31,10.20
2008,10,18,10,32,10.20
2008,10,18,10,33,10.30
2008,10,18,10,34,10.30
2008,10,18,10,35,10.30
2008,10,18,10,36,10.40
2008,10,18,10,37,10.50
2008,10,18,10,38,10.40
2008,10,18,10,39,10.50
2008,10,18,10,40,10.50
2008,10,18,10,41,10.50
2008,10,18,10,42,10.60
2008,10,18,10,43,10.60
2008,10,18,10,44,10.60
2008,10,18,10,45,10.70
2008,10,18,10,46,10.70
2008,10,18,10,47,10.70
2008,10,18,10,48,10.80
2008,10,18,10,49,10.80
2008,10,18,10,50,10.80
2008,10,18,10,51,10.80
2008,10,18,10,52,10.80
2008,10,18,10,53,10.80
2008,10,18,10,54,10.80
2008,10,18,10,55,10.80
2008,10,18,10,56,10.80
2008,10,18,10,57,10.80
2008,10,18,10,58,10.80
2008,10,18,10,59,10.80
2008,10,18,11,00,10.80
2008,10,18,11,01,10.80
2008,10,18,11,02,10.80
2008,10,18,11,03,10.80
2008,10,18,11,04,10.90
2008,10,18,11,05,10.90
2008,10,18,11,06,10.90
2008,10,18,11,07,10.90
2008,10,18,11,08,10.90
2008,10,18,11,09,10.90
2008,10,18,11,10,10.90
2008,10,18,11,11,10.90
2008,10,18,11,12,11.00
2008,10,18,11,13,11.00
2008,10,18,11,14,11.10
2008,10,18,11,15,11.10
2008,10,18,11,16,11.10
2008,10,18,11,17,11.10
2008,10,18,11,18,11.10
2008,10,18,11,19,11.10
2008,10,18,11,20,11.10
2008,10,18,11,21,11.10
2008,10,18,11,22,11.10
2008,10,18,11,23,11.10
2008,10,18,11,24,11.10
2008,10,18,11,25,11.10
2008,10,18,11,26,11.10
2008,10,18,11,27,11.10
2008,10,18,11,28,11.10
2008,10,18,11,29,11.10
2008,10,18,11,30,11.20
2008,10,18,11,31,11.20
2008,10,18,11,32,11.20
2008,10,18,11,33,11.20
2008,10,18,11,34,11.20
2008,10,18,11,35,11.20
2008,10,18,11,36,11.30
2008,10,18,11,37,11.30
2008,10,18,11,38,11.30
2008,10,18,11,39,11.30
2008,10,18,11,40,11.40
2008,10,18,11,41,11.40
2008,10,18,11,42,11.40
2008,10,18,11,43,11.50
2008,10,18,11,44,11.50
2008,10,18,11,45,11.50
2008,10,18,11,46,11.50
2008,10,18,11,47,11.50
2008,10,18,11,48,11.50
2008,10,18,11,49,11.50
2008,10,18,11,50,11.50
2008,10,18,11,51,11.50
2008,10,18,11,52,11.40
2008,10,18,11,53,11.40
2008,10,18,11,54,11.40
2008,10,18,11,55,11.40
2008,10,18,11,56,11.40
2008,10,18,11,57,11.40
2008,10,18,11,58,11.50
2008,10,18,11,59,11.60
2008,10,18,12,00,11.60
2008,10,18,12,01,11.60
2008,10,18,12,02,11.60
2008,10,18,12,03,11.70
2008,10,18,12,04,11.70
2008,10,18,12,05,11.80
2008,10,18,12,06,11.80
2008,10,18,12,07,11.80
2008,10,18,12,08,11.90
2008,10,18,12,09,11.90
2008,10,18,12,10,11.90
2008,10,18,12,11,11.90
2008,10,18,12,12,11.90
2008,10,18,12,13,11.90
2008,10,18,12,14,12.00
2008,10,18,12,15,12.00
2008,10,18,12,16,12.10
2008,10,18,12,17,12.10
2008,10,18,12,18,12.10
2008,10,18,12,19,12.10
2008,10,18,12,20,12.10
2008,10,18,12,21,12.10
2008,10,18,12,22,12.20
2008,10,18,12,23,12.20
2008,10,18,12,24,12.20
2008,10,18,12,25,12.20
2008,10,18,12,26,12.20
2008,10,18,12,27,12.30
2008,10,18,12,28,12.30
2008,10,18,12,29,12.40
2008,10,18,12,30,12.40
2008,10,18,12,31,12.50
2008,10,18,12,32,12.50
2008,10,18,12,33,12.60
2008,10,18,12,34,12.60
2008,10,18,12,35,12.60
2008,10,18,12,36,12.60
2008,10,18,12,37,12.70
2008,10,18,12,38,12.70
2008,10,18,12,39,12.70
2008,10,18,12,40,12.70
2008,10,18,12,41,12.70
2008,10,18,12,42,12.60
2008,10,18,12,43,12.60
2008,10,18,12,44,12.60
2008,10,18,12,45,12.60
2008,10,18,12,46,12.60
2008,10,18,12,47,12.60
2008,10,18,12,48,12.60
2008,10,18,12,49,12.60
2008,10,18,12,50,12.60
2008,10,18,12,51,12.60
2008,10,18,12,52,12.60
2008,10,18,12,53,12.60
2008,10,18,12,54,12.60
2008,10,18,12,55,12.50
2008,10,18,12,56,12.40
2008,10,18,12,57,12.40
2008,10,18,12,58,12.30
2008,10,18,12,59,12.30
2008,10,18,13,00,12.30
2008,10,18,13,01,12.30
2008,10,18,13,02,12.20
2008,10,18,13,03,12.20
2008,10,18,13,04,12.20
2008,10,18,13,05,12.20
2008,10,18,13,06,12.20
2008,10,18,13,07,12.20
2008,10,18,13,08,12.10
2008,10,18,13,09,12.10
2008,10,18,13,10,12.10
2008,10,18,13,11,12.10
2008,10,18,13,12,12.10
2008,10,18,13,13,12.00
2008,10,18,13,14,11.90
2008,10,18,13,15,11.90
2008,10,18,13,16,11.80
2008,10,18,13,17,11.80
2008,10,18,13,18,11.80
2008,10,18,13,19,11.80
2008,10,18,13,20,11.80
2008,10,18,13,21,11.90
2008,10,18,13,22,11.90
2008,10,18,13,23,11.90
2008,10,18,13,24,11.90
2008,10,18,13,25,12.00
2008,10,18,13,26,12.00
2008,10,18,13,27,12.10
2008,10,18,13,28,12.10
2008,10,18,13,29,12.10
2008,10,18,13,30,12.10
2008,10,18,13,31,12.20
2008,10,18,13,32,12.20
2008,10,18,13,33,12.30
2008,10,18,13,34,12.30
2008,10,18,13,35,12.30
2008,10,18,13,36,12.40
2008,10,18,13,37,12.50
2008,10,18,13,38,12.50
2008,10,18,13,39,12.60
2008,10,18,13,40,12.60
2008,10,18,13,41,12.60
2008,10,18,13,42,12.60
2008,10,18,13,43,12.60
2008,10,18,13,44,12.60
2008,10,18,13,45,12.60
2008,10,18,13,46,12.60
2008,10,18,13,47,12.70
2008,10,18,13,48,12.70
2008,10,18,13,49,12.70
2008,10,18,13,50,12.70
2008,10,18,13,51,12.80
2008,10,18,13,52,12.80
2008,10,18,13,53,12.80
2008,10,18,13,54,12.80
2008,10,18,13,55,12.80
2008,10,18,13,56,12.80
2008,10,18,13,57,12.90
2008,10,18,13,58,12.90
2008,10,18,13,59,12.80
2008,10,18,14,00,12.80
2008,10,18,14,01,12.70
2008,10,18,14,02,12.60
2008,10,18,14,03,12.40
2008,10,18,14,04,12.30
2008,10,18,14,05,12.30
2008,10,18,14,06,12.20
2008,10,18,14,07,12.20
2008,10,18,14,08,12.10
2008,10,18,14,09,12.10
2008,10,18,14,10,12.00
2008,10,18,14,11,11.90
2008,10,18,14,12,11.90
2008,10,18,14,13,11.90
2008,10,18,14,14,11.80
2008,10,18,14,15,11.80
2008,10,18,14,16,11.80
2008,10,18,14,17,11.80
2008,10,18,14,18,11.80
2008,10,18,14,19,11.80
2008,10,18,14,20,11.80
2008,10,18,14,21,11.80
2008,10,18,14,22,11.70
2008,10,18,14,23,11.70
2008,10,18,14,24,11.60
2008,10,18,14,25,11.60
2008,10,18,14,26,11.60
2008,10,18,14,27,11.60
2008,10,18,14,28,11.60
2008,10,18,14,29,11.60
2008,10,18,14,30,11.70
2008,10,18,14,31,11.70
2008,10,18,14,32,11.70
2008,10,18,14,33,11.70
2008,10,18,14,34,11.80
2008,10,18,14,35,11.80
2008,10,18,14,36,11.80
2008,10,18,14,37,11.80
2008,10,18,14,38,11.90
2008,10,18,14,39,11.90
2008,10,18,14,40,11.90
2008,10,18,14,41,12.00
2008,10,18,14,42,12.00
2008,10,18,14,43,12.00
2008,10,18,14,44,12.00
2008,10,18,14,45,12.00
2008,10,18,14,46,12.00
2008,10,18,14,47,12.00
2008,10,18,14,48,12.00
2008,10,18,14,49,12.00
2008,10,18,14,50,11.90
2008,10,18,14,51,11.90
2008,10,18,14,52,11.90
2008,10,18,14,53,11.90
2008,10,18,14,54,11.90
2008,10,18,14,55,11.80
2008,10,18,14,56,11.80
2008,10,18,14,57,11.80
2008,10,18,14,58,11.80
2008,10,18,14,59,11.80
2008,10,18,15,00,11.80
2008,10,18,15,01,11.80
2008,10,18,15,02,11.70
2008,10,18,15,03,11.70
2008,10,18,15,04,11.70
2008,10,18,15,05,11.70
2008,10,18,15,06,11.70
2008,10,18,15,07,11.70
2008,10,18,15,08,11.60
2008,10,18,15,09,11.60
2008,10,18,15,10,11.50
2008,10,18,15,11,11.50
2008,10,18,15,12,11.50
2008,10,18,15,13,11.40
2008,10,18,15,14,11.50
2008,10,18,15,15,11.50
2008,10,18,15,16,11.50
2008,10,18,15,17,11.50
2008,10,18,15,18,11.40
2008,10,18,15,19,11.40
2008,10,18,15,20,11.40
2008,10,18,15,21,11.40
2008,10,18,15,22,11.40
2008,10,18,15,23,11.40
2008,10,18,15,24,11.40
2008,10,18,15,25,11.40
2008,10,18,15,26,11.40
2008,10,18,15,27,11.40
2008,10,18,15,28,11.40
2008,10,18,15,29,11.40
2008,10,18,15,30,11.30
2008,10,18,15,31,11.30
2008,10,18,15,32,11.30
2008,10,18,15,33,11.30
2008,10,18,15,34,11.30
2008,10,18,15,35,11.30
2008,10,18,15,36,11.30
2008,10,18,15,37,11.30
2008,10,18,15,38,11.20
2008,10,18,15,39,11.20
2008,10,18,15,40,11.20
2008,10,18,15,41,11.20
2008,10,18,15,42,11.20
2008,10,18,15,43,11.20
2008,10,18,15,44,11.20
2008,10,18,15,45,11.20
2008,10,18,15,46,11.20
2008,10,18,15,47,11.20
2008,10,18,15,48,11.20
2008,10,18,15,49,11.20
2008,10,18,15,50,11.20
2008,10,18,15,51,11.20
2008,10,18,15,52,11.20
2008,10,18,15,53,11.20
2008,10,18,15,54,11.10
2008,10,18,15,55,11.00
2008,10,18,15,56,10.90
2008,10,18,15,57,10.90
2008,10,18,15,58,10.90
2008,10,18,15,59,10.80
2008,10,18,16,00,10.80
2008,10,18,16,01,10.80
2008,10,18,16,02,10.70
2008,10,18,16,03,10.70
2008,10,18,16,04,10.70
2008,10,18,16,05,10.60
2008,10,18,16,06,10.60
2008,10,18,16,07,10.50
2008,10,18,16,08,10.50
2008,10,18,16,09,10.40
2008,10,18,16,10,10.40
2008,10,18,16,11,10.40
2008,10,18,16,12,10.30
2008,10,18,16,13,10.30
2008,10,18,16,14,10.20
2008,10,18,16,15,10.10
2008,10,18,16,16,10.10
2008,10,18,16,17,10.00
2008,10,18,16,18,9.90
2008,10,18,16,19,9.90
2008,10,18,16,20,9.80
2008,10,18,16,21,9.80
2008,10,18,16,22,9.80
2008,10,18,16,23,9.70
2008,10,18,16,24,9.60
2008,10,18,16,25,9.50
2008,10,18,16,26,9.50
2008,10,18,16,27,9.40
2008,10,18,16,28,9.30
2008,10,18,16,29,9.30
2008,10,18,16,30,9.20
2008,10,18,16,31,9.20
2008,10,18,16,32,9.10
2008,10,18,16,33,9.10
2008,10,18,16,34,9.10
2008,10,18,16,35,9.00
2008,10,18,16,36,9.00
2008,10,18,16,37,8.90
2008,10,18,16,38,8.90
2008,10,18,16,39,8.90
2008,10,18,16,40,8.90
2008,10,18,16,41,8.90
2008,10,18,16,42,8.90
2008,10,18,16,43,8.90
2008,10,18,16,44,8.90
2008,10,18,16,45,8.90
2008,10,18,16,46,8.80
2008,10,18,16,47,8.80
2008,10,18,16,48,8.80
2008,10,18,16,49,8.80
2008,10,18,16,50,8.80
2008,10,18,16,51,8.80
2008,10,18,16,52,8.80
2008,10,18,16,53,8.80
2008,10,18,16,54,8.80
2008,10,18,16,55,8.80
2008,10,18,16,56,8.80
2008,10,18,16,57,8.80
2008,10,18,16,58,8.80
2008,10,18,16,59,8.80
2008,10,18,17,00,8.80
2008,10,18,17,01,8.80
2008,10,18,17,02,8.80
2008,10,18,17,03,8.80
2008,10,18,17,04,8.80
2008,10,18,17,05,8.80
2008,10,18,17,06,8.80
2008,10,18,17,07,8.80
2008,10,18,17,08,8.80
2008,10,18,17,09,8.80
2008,10,18,17,10,8.80
2008,10,18,17,11,8.80
2008,10,18,17,12,8.70
2008,10,18,17,13,8.70
2008,10,18,17,14,8.70
2008,10,18,17,15,8.70
2008,10,18,17,16,8.70
2008,10,18,17,17,8.70
2008,10,18,17,18,8.70
2008,10,18,17,19,8.70
2008,10,18,17,20,8.70
2008,10,18,17,21,8.60
2008,10,18,17,22,8.60
2008,10,18,17,23,8.60
2008,10,18,17,24,8.60
2008,10,18,17,25,8.50
2008,10,18,17,26,8.50
2008,10,18,17,27,8.40
2008,10,18,17,28,8.40
2008,10,18,17,29,8.40
2008,10,18,17,30,8.40
2008,10,18,17,31,8.40
2008,10,18,17,32,8.30
2008,10,18,17,33,8.30
2008,10,18,17,34,8.30
2008,10,18,17,35,8.30
2008,10,18,17,36,8.30
2008,10,18,17,37,8.20
2008,10,18,17,38,8.20
2008,10,18,17,39,8.20
2008,10,18,17,40,8.20
2008,10,18,17,41,8.20
2008,10,18,17,42,8.10
2008,10,18,17,43,8.10
2008,10,18,17,44,8.10
2008,10,18,17,45,8.10
2008,10,18,17,46,8.10
2008,10,18,17,47,8.10
2008,10,18,17,48,8.10
2008,10,18,17,49,8.10
2008,10,18,17,50,8.10